AD8AK Weather Reports


Display with metric or nautical units.
time (UTC)temp
F
wind
direction
speed
MPH
gust
MPH
rain 1hr
in
rain 24hr
in
rain mn
in
humidity
%
barometer
mb
20260503223733 55 289 5.0 8.0 0.00 0.00 0.00 58 1012.7
20260503223231 55 291 6.0 8.0 0.00 0.00 0.00 57 1012.6
20260503222727 55 281 6.0 8.0 0.00 0.00 0.00 60 1012.4
20260503222225 55 274 5.0 13.0 0.00 0.00 0.00 58 1012.5
20260503221723 56 260 3.0 13.0 0.00 0.00 0.00 59 1012.4
20260503221221 57 217 8.0 10.0 0.00 0.00 0.00 55 1012.2
20260503220717 60 312 7.0 24.0 0.00 0.00 0.00 47 1012.1
20260503220214 60 286 5.0 11.0 0.00 0.00 0.00 39 1012.0
20260503215710 60 241 5.0 13.0 0.00 0.00 0.00 38 1012.0
20260503215208 60 234 2.0 8.0 0.00 0.00 0.00 38 1012.0
20260503214706 60 327 5.0 11.0 0.00 0.00 0.00 37 1012.1
20260503214202 60 219 4.0 7.0 0.00 0.00 0.00 38 1012.3
20260503213701 60 143 5.0 8.0 0.00 0.00 0.00 38 1012.2
20260503213157 60 266 5.0 9.0 0.00 0.00 0.00 36 1012.2
20260503212654 61 270 9.0 10.0 0.00 0.00 0.00 37 1012.1
20260503212152 60 251 4.0 10.0 0.00 0.00 0.00 38 1012.1
20260503211650 60 335 6.0 7.0 0.00 0.00 0.00 38 1012.0
20260503211145 60 295 3.0 8.0 0.00 0.00 0.00 38 1012.3
20260503210641 60 247 10.0 13.0 0.00 0.00 0.00 37 1012.4
20260503210138 60 243 3.0 7.0 0.00 0.00 0.00 38 1012.3
20260503205634 60 267 5.0 8.0 0.00 0.00 0.00 37 1012.3
20260503205130 60 241 4.0 15.0 0.00 0.00 0.00 38 1012.4
20260503204627 60 235 9.0 14.0 0.00 0.00 0.00 36 1012.4
20260503204125 60 225 8.0 13.0 0.00 0.00 0.00 36 1012.4
20260503203621 61 248 4.0 14.0 0.00 0.00 0.00 36 1012.6
20260503203119 61 194 6.0 7.0 0.00 0.00 0.00 36 1012.5
20260503202616 61 228 9.0 13.0 0.00 0.00 0.00 36 1012.6
20260503202114 61 221 6.0 11.0 0.00 0.00 0.00 37 1012.6
20260503201612 61 346 4.0 11.0 0.00 0.00 0.00 36 1012.7
20260503201109 61 315 4.0 13.0 0.00 0.00 0.00 36 1012.9
20260503200605 61 253 4.0 8.0 0.00 0.00 0.00 36 1013.0
20260503195559 61 248 4.0 7.0 0.00 0.00 0.00 37 1012.9
20260503195056 61 244 8.0 11.0 0.00 0.00 0.00 37 1013.3
20260503194553 61 256 8.0 11.0 0.00 0.00 0.00 34 1013.1
20260503194053 61 180 6.0 9.0 0.00 0.00 0.00 36 1013.5
20260503193550 61 226 4.0 8.0 0.00 0.00 0.00 37 1013.2
20260503193045 61 258 6.0 8.0 0.00 0.00 0.00 37 1013.3
20260503192541 61 255 9.0 13.0 0.00 0.00 0.00 35 1013.3
20260503192037 61 234 7.0 10.0 0.00 0.00 0.00 35 1013.3
20260503191534 61 222 4.0 8.0 0.00 0.00 0.00 38 1013.5
20260503191031 61 255 7.0 13.0 0.00 0.00 0.00 35 1013.5
20260503190528 61 232 9.0 14.0 0.00 0.00 0.00 36 1013.7
20260503190025 61 246 9.0 10.0 0.00 0.00 0.00 34 1013.8
20260503185521 60 223 7.0 9.0 0.00 0.00 0.00 36 1013.8
20260503185020 61 252 7.0 13.0 0.00 0.00 0.00 36 1013.9
20260503184517 61 281 6.0 8.0 0.00 0.00 0.00 37 1014.0
20260503184013 61 272 3.0 14.0 0.00 0.00 0.00 37 1014.1
20260503183510 61 228 7.0 9.0 0.00 0.00 0.00 37 1014.4
20260503183007 61 232 7.0 8.0 0.00 0.00 0.00 35 1014.1
20260503182506 61 234 6.0 9.0 0.00 0.00 0.00 37 1014.2
20260503182004 61 235 4.0 11.0 0.00 0.00 0.00 37 1014.2
20260503181500 61 221 7.0 10.0 0.00 0.00 0.00 36 1014.3
20260503180956 60 283 4.0 4.0 0.00 0.00 0.00 37 1014.4
20260503180454 61 222 7.0 11.0 0.00 0.00 0.00 35 1014.5
20260503175951 61 241 6.0 10.0 0.00 0.00 0.00 36 1014.4
20260503175449 61 216 7.0 8.0 0.00 0.00 0.00 34 1014.5
20260503174944 61 237 8.0 11.0 0.00 0.00 0.00 34 1014.7
20260503174443 60 221 6.0 10.0 0.00 0.00 0.00 34 1014.4
20260503173944 60 275 2.0 8.0 0.00 0.00 0.00 36 1014.8
20260503173440 61 255 6.0 8.0 0.00 0.00 0.00 35 1014.8
20260503172937 60 217 7.0 8.0 0.00 0.00 0.00 35 1014.7
20260503172434 60 240 5.0 11.0 0.00 0.00 0.00 36 1014.8
20260503171930 61 235 4.0 7.0 0.00 0.00 0.00 35 1014.8
20260503171427 61 274 8.0 11.0 0.00 0.00 0.00 33 1014.7
20260503170925 60 264 7.0 11.0 0.00 0.00 0.00 36 1014.9
20260503170421 60 285 8.0 9.0 0.00 0.00 0.00 36 1014.9
20260503110527 34 203 0.0 0.0 0.00 0.00 0.00 83 1016.5
20260503090414 32 266 0.0 0.0 0.00 0.00 0.00 89 1016.6
20260503081340 32 270 0.0 0.0 0.00 0.00 0.00 89 1016.7
20260503080837 32 270 0.0 0.0 0.00 0.00 0.00 89 1016.4
20260503080334 32 270 0.0 0.0 0.00 0.00 0.00 89 1016.5
20260503072811 32 270 0.0 0.0 0.00 0.00 0.00 88 1016.5
20260503072308 32 276 0.0 0.0 0.00 0.00 0.00 88 1016.8
20260503071804 32 276 0.0 0.0 0.00 0.00 0.00 88 1016.6
20260503071301 33 276 0.0 0.0 0.00 0.00 0.00 88 1016.7
20260503070757 33 276 0.0 0.0 0.00 0.00 0.00 88 1016.6
20260503070255 33 276 0.0 0.0 0.00 0.00 0.00 87 1016.7
20260503060220 34 276 0.0 0.0 0.00 0.00 0.00 84 1016.7
20260503054707 34 276 0.0 0.0 0.00 0.00 0.00 83 1016.8
20260503054205 34 276 0.0 0.0 0.00 0.00 0.00 83 1017.0
20260503053703 34 276 0.0 0.0 0.00 0.00 0.00 82 1016.9
20260503053201 35 276 0.0 0.0 0.00 0.00 0.00 82 1016.7
20260503052657 35 276 0.0 0.0 0.00 0.00 0.00 82 1016.8
20260503052153 35 276 0.0 0.0 0.00 0.00 0.00 82 1017.0
20260503051649 35 276 0.0 0.0 0.00 0.00 0.00 81 1017.0
20260503051147 35 276 0.0 0.0 0.00 0.00 0.00 81 1017.0
20260503050643 35 276 0.0 0.0 0.00 0.00 0.00 81 1017.0
20260503050140 35 276 0.0 0.0 0.00 0.00 0.00 81 1017.0
20260503045637 35 276 0.0 0.0 0.00 0.00 0.00 80 1017.0
20260503045134 35 276 0.0 0.0 0.00 0.00 0.00 79 1016.9
20260503044631 35 276 0.0 0.0 0.00 0.00 0.00 79 1016.9
20260503044129 36 276 0.0 0.0 0.00 0.00 0.00 78 1017.2
20260503043625 36 276 0.0 0.0 0.00 0.00 0.00 77 1017.0
20260503043122 36 276 0.0 0.0 0.00 0.00 0.00 77 1016.9
20260503042619 36 276 0.0 0.0 0.00 0.00 0.00 76 1016.8
20260503042114 36 276 0.0 0.0 0.00 0.00 0.00 76 1016.8
20260503041611 37 276 0.0 0.0 0.00 0.00 0.00 76 1017.1
20260503041109 37 276 0.0 0.0 0.00 0.00 0.00 74 1016.9
20260503040606 37 276 0.0 0.0 0.00 0.00 0.00 73 1016.9
20260503040103 37 276 0.0 0.0 0.00 0.00 0.00 73 1017.1
20260503035600 38 276 0.0 0.0 0.00 0.00 0.00 73 1017.0
20260503035058 38 276 0.0 0.0 0.00 0.00 0.00 73 1017.0
20260503034555 38 276 0.0 0.0 0.00 0.00 0.00 72 1017.0
20260503034052 38 276 0.0 0.0 0.00 0.00 0.00 72 1017.1
20260503033549 38 276 0.0 0.0 0.00 0.00 0.00 71 1017.0
20260503033047 39 276 0.0 0.0 0.00 0.00 0.00 71 1017.1
20260503032545 39 276 0.0 0.0 0.00 0.00 0.00 70 1017.0
20260503032043 39 276 0.0 0.0 0.00 0.00 0.00 70 1016.9
20260503031540 39 276 0.0 0.0 0.00 0.00 0.00 70 1017.0
20260503031037 40 276 0.0 0.0 0.00 0.00 0.00 70 1017.1
20260503030533 40 276 0.0 0.0 0.00 0.00 0.00 69 1017.1
20260503030031 40 276 0.0 0.0 0.00 0.00 0.00 69 1017.0
20260503025527 40 276 0.0 0.0 0.00 0.00 0.00 68 1017.1
20260503025025 40 276 0.0 0.0 0.00 0.00 0.00 68 1017.3
20260503024521 41 276 0.0 0.0 0.00 0.00 0.00 68 1017.3
20260503024018 41 276 0.0 0.0 0.00 0.00 0.00 67 1017.1
20260503023515 41 276 0.0 0.0 0.00 0.00 0.00 67 1017.2
20260503023013 41 276 0.0 0.0 0.00 0.00 0.00 67 1017.2
20260503022508 41 277 0.0 0.0 0.00 0.00 0.00 66 1017.3
20260503022003 41 277 0.0 0.0 0.00 0.00 0.00 66 1017.3
20260503021500 41 276 0.0 0.0 0.00 0.00 0.00 65 1017.3
20260503020957 42 277 0.0 0.0 0.00 0.00 0.00 66 1017.0
20260503020454 42 276 0.0 0.0 0.00 0.00 0.00 65 1017.1
20260503015951 42 277 0.0 0.0 0.00 0.00 0.00 65 1017.2
20260503015448 42 277 0.0 0.0 0.00 0.00 0.00 64 1017.2
20260503014944 42 277 0.0 0.0 0.00 0.00 0.00 64 1017.0
20260503014441 42 277 0.0 0.0 0.00 0.00 0.00 64 1017.2
20260503013939 42 277 0.0 0.0 0.00 0.00 0.00 64 1017.1
20260503013436 42 277 0.0 0.0 0.00 0.00 0.00 63 1017.2
20260503012933 42 277 0.0 0.0 0.00 0.00 0.00 63 1017.1
20260503012431 42 277 0.0 0.0 0.00 0.00 0.00 63 1016.9
20260503011927 43 277 0.0 0.0 0.00 0.00 0.00 62 1016.9
20260503011424 43 277 0.0 0.0 0.00 0.00 0.00 60 1017.0
20260503010921 43 277 0.0 0.0 0.00 0.00 0.00 60 1017.1
20260503010418 43 277 0.0 0.0 0.00 0.00 0.00 59 1016.8
20260503005915 43 277 0.0 0.0 0.00 0.00 0.00 58 1017.2
20260503005412 43 277 0.0 0.0 0.00 0.00 0.00 57 1017.0
20260503004908 43 277 0.0 0.0 0.00 0.00 0.00 57 1017.0
20260503004405 44 277 0.0 0.0 0.00 0.00 0.00 55 1017.0
20260503003903 44 279 0.0 0.0 0.00 0.00 0.00 54 1016.9
20260503003359 45 295 0.0 0.0 0.00 0.00 0.00 52 1017.0
20260503002857 45 297 0.0 0.0 0.00 0.00 0.00 51 1016.9
20260503002354 45 295 0.0 0.0 0.00 0.00 0.00 50 1016.9
20260503001850 45 296 0.0 0.0 0.00 0.00 0.00 51 1016.9
20260503001346 46 296 0.0 0.0 0.00 0.00 0.00 50 1016.7
20260503000844 46 302 0.0 0.0 0.00 0.00 0.00 49 1016.8
20260503000341 46 289 0.0 0.0 0.00 0.00 0.00 47 1016.7
20260502235838 47 292 0.0 0.0 0.00 0.00 0.00 48 1016.7
20260502235335 47 297 1.0 2.0 0.00 0.00 0.00 46 1016.8
20260502234832 47 333 2.0 2.0 0.00 0.00 0.00 46 1016.9
20260502234329 47 289 0.0 1.0 0.00 0.00 0.00 47 1016.8
20260502233826 47 311 1.0 3.0 0.00 0.00 0.00 46 1016.9
20260502233322 47 285 0.0 1.0 0.00 0.00 0.00 47 1017.0
20260502232819 47 312 1.0 1.0 0.00 0.00 0.00 47 1016.9
20260502232316 47 334 1.0 2.0 0.00 0.00 0.00 47 1016.6
20260502231812 47 322 0.0 1.0 0.00 0.00 0.00 48 1016.7
20260502231310 47 354 0.0 1.0 0.00 0.00 0.00 47 1016.9
20260502230808 47 318 0.0 0.0 0.00 0.00 0.00 47 1016.9
20260502230306 47 321 0.0 2.0 0.00 0.00 0.00 46 1016.9
20260502225802 47 309 0.0 2.0 0.00 0.00 0.00 46 1016.9
20260502225259 47 314 1.0 3.0 0.00 0.00 0.00 45 1016.9
20260502224755 47 328 2.0 3.0 0.00 0.00 0.00 45 1016.8
20260502224252 47 16 2.0 4.0 0.00 0.00 0.00 45 1016.9